When you browse on this site, cookies collect data to enhance your experience and personalize the content and advertising you see.
Visit our Privacy Policy to learn more. By continuing to use the site, you agree to this use of cookies and data.
  • In Austria
  • List of Countries
  • For 7 days
  • Water Temperature
  • Weather Map
  • News
  • Weather Widgets
  • user-avatar
    Login

    Hourly Weather Tula de Allende

    Today, 15 November, Friday

    Time Temperature Precipitation Wind Pressure Humidity
    00:00 +14°C° 0 mm 2 mps 596 mmHg 89%
    01:00 +13°C° 0 mm 2 mps 596 mmHg 88%
    02:00 +13°C° 0 mm 2 mps 596 mmHg 86%
    03:00 +13°C° 0 mm 1 mps 596 mmHg 87%
    04:00 +13°C° 0 mm 1 mps 596 mmHg 87%
    05:00 +13°C° 0 mm 1 mps 596 mmHg 87%
    06:00 +13°C° 0 mm 1 mps 596 mmHg 86%
    07:00 +13°C° 0 mm 1 mps 597 mmHg 85%
    08:00 +14°C° 0 mm 1 mps 597 mmHg 84%
    09:00 +15°C° 0 mm 2 mps 597 mmHg 80%
    10:00 +16°C° 0 mm 2 mps 598 mmHg 75%
    11:00 +17°C° 0 mm 2 mps 598 mmHg 70%
    12:00 +17°C° 0 mm 3 mps 597 mmHg 70%
    13:00 +17°C° 0 mm 3 mps 597 mmHg 70%
    14:00 +17°C° 0 mm 3 mps 596 mmHg 70%
    15:00 +16°C° 0 mm 3 mps 596 mmHg 74%
    16:00 +14°C° 0 mm 3 mps 595 mmHg 78%
    17:00 +14°C° 0 mm 2 mps 595 mmHg 82%
    18:00 +13°C° 0 mm 2 mps 595 mmHg 83%
    19:00 +13°C° 0 mm 2 mps 596 mmHg 85%
    20:00 +12°C° 0 mm 1 mps 596 mmHg 87%
    21:00 +12°C° 0 mm 1 mps 596 mmHg 87%
    22:00 +12°C° 0 mm 1 mps 596 mmHg 87%
    23:00 +12°C° 0 mm 1 mps 596 mmHg 87%

    Tomorrow, 16 November, Saturday

    Time Temperature Precipitation Wind Pressure Humidity
    00:00 +12°C° 0.1 mm 1 mps 595 mmHg 87%
    01:00 +12°C° 0.1 mm 1 mps 595 mmHg 87%
    02:00 +12°C° 0.1 mm 1 mps 594 mmHg 87%
    03:00 +11°C° 0.1 mm 0 mps 595 mmHg 88%
    04:00 +11°C° 0.1 mm 0 mps 595 mmHg 88%
    05:00 +11°C° 0.1 mm 0 mps 595 mmHg 88%
    06:00 +12°C° 0.1 mm 0 mps 595 mmHg 85%
    07:00 +13°C° 0.1 mm 0 mps 596 mmHg 83%
    08:00 +13°C° 0.1 mm 0 mps 596 mmHg 80%
    09:00 +16°C° 0 mm 1 mps 597 mmHg 74%
    10:00 +19°C° 0 mm 1 mps 597 mmHg 67%
    11:00 +19°C° 0 mm 2 mps 597 mmHg 61%
    12:00 +19°C° 0.2 mm 2 mps 596 mmHg 61%
    13:00 +20°C° 0.2 mm 3 mps 596 mmHg 61%
    14:00 +20°C° 0.2 mm 3 mps 595 mmHg 61%
    15:00 +19°C° 0.2 mm 3 mps 595 mmHg 64%
    16:00 +18°C° 0.2 mm 2 mps 595 mmHg 68%
    17:00 +17°C° 0.2 mm 2 mps 595 mmHg 71%
    18:00 +18°C° 0 mm 1 mps 595 mmHg 75%
    19:00 +16°C° 0 mm 1 mps 595 mmHg 78%
    20:00 +16°C° 0 mm 1 mps 595 mmHg 82%
    21:00 +15°C° 0.1 mm 0 mps 595 mmHg 83%
    22:00 +14°C° 0.1 mm 0 mps 595 mmHg 84%
    23:00 +14°C° 0.1 mm 0 mps 595 mmHg 85%

    Day after tomorrow, 17 November, Sunday

    Time Temperature Precipitation Wind Pressure Humidity
    00:00 +14°C° 0.1 mm 0 mps 594 mmHg 86%
    01:00 +13°C° 0.1 mm 0 mps 594 mmHg 87%
    02:00 +13°C° 0.1 mm 0 mps 593 mmHg 89%
    03:00 +13°C° 0 mm 0 mps 593 mmHg 88%
    04:00 +12°C° 0 mm 0 mps 593 mmHg 88%
    05:00 +12°C° 0 mm 0 mps 593 mmHg 88%
    06:00 +15°C° 0 mm 1 mps 594 mmHg 82%
    07:00 +16°C° 0 mm 1 mps 595 mmHg 75%
    08:00 +18°C° 0 mm 1 mps 596 mmHg 69%
    09:00 +20°C° 0 mm 1 mps 596 mmHg 61%
    10:00 +20°C° 0 mm 2 mps 596 mmHg 54%
    11:00 +22°C° 0 mm 3 mps 596 mmHg 46%
    12:00 +22°C° 0 mm 3 mps 596 mmHg 46%
    13:00 +22°C° 0 mm 4 mps 595 mmHg 46%
    14:00 +22°C° 0 mm 4 mps 594 mmHg 46%
    15:00 +21°C° 0.1 mm 4 mps 594 mmHg 52%
    16:00 +20°C° 0.1 mm 3 mps 594 mmHg 59%
    17:00 +18°C° 0.1 mm 3 mps 594 mmHg 66%
    18:00 +18°C° 0.1 mm 2 mps 594 mmHg 70%
    19:00 +17°C° 0.1 mm 2 mps 594 mmHg 75%
    20:00 +16°C° 0.1 mm 1 mps 594 mmHg 79%
    21:00 +16°C° 0 mm 1 mps 594 mmHg 80%
    22:00 +15°C° 0 mm 1 mps 594 mmHg 81%
    23:00 +14°C° 0 mm 0 mps 594 mmHg 82%

    18 November, Monday

    Time Temperature Precipitation Wind Pressure Humidity
    00:00 +14°C° 0 mm 0 mps 593 mmHg 82%
    01:00 +14°C° 0 mm 0 mps 593 mmHg 81%
    02:00 +14°C° 0 mm 0 mps 593 mmHg 81%
    03:00 +13°C° 0 mm 0 mps 593 mmHg 83%
    04:00 +12°C° 0 mm 0 mps 593 mmHg 86%
    05:00 +12°C° 0 mm 0 mps 593 mmHg 88%
    06:00 +13°C° 0 mm 0 mps 593 mmHg 83%
    07:00 +14°C° 0 mm 0 mps 594 mmHg 78%
    08:00 +15°C° 0 mm 0 mps 595 mmHg 72%
    09:00 +19°C° 0 mm 1 mps 595 mmHg 66%
    10:00 +20°C° 0 mm 1 mps 595 mmHg 60%
    11:00 +21°C° 0 mm 2 mps 595 mmHg 54%
    12:00 +21°C° 0.3 mm 2 mps 594 mmHg 54%
    13:00 +21°C° 0.3 mm 3 mps 594 mmHg 54%
    14:00 +21°C° 0.3 mm 3 mps 593 mmHg 54%
    15:00 +20°C° 0.2 mm 2 mps 593 mmHg 59%
    16:00 +19°C° 0.2 mm 2 mps 593 mmHg 63%
    17:00 +19°C° 0.2 mm 1 mps 593 mmHg 68%
    18:00 +18°C° 0 mm 1 mps 593 mmHg 70%
    19:00 +18°C° 0 mm 1 mps 594 mmHg 72%
    20:00 +18°C° 0 mm 1 mps 594 mmHg 75%
    21:00 +15°C° 0 mm 0 mps 594 mmHg 77%
    22:00 +15°C° 0 mm 0 mps 594 mmHg 79%
    23:00 +14°C° 0 mm 0 mps 593 mmHg 81%

    19 November, Tuesday

    Time Temperature Precipitation Wind Pressure Humidity
    00:00 +13°C° 0 mm 0 mps 593 mmHg 83%
    01:00 +13°C° 0 mm 0 mps 593 mmHg 84%
    02:00 +12°C° 0 mm 0 mps 592 mmHg 86%
    03:00 +12°C° 0 mm 0 mps 592 mmHg 87%
    04:00 +12°C° 0 mm 0 mps 593 mmHg 87%
    05:00 +12°C° 0 mm 0 mps 593 mmHg 88%
    06:00 +13°C° 0 mm 0 mps 594 mmHg 82%
    07:00 +15°C° 0 mm 1 mps 594 mmHg 76%
    08:00 +16°C° 0 mm 1 mps 595 mmHg 70%
    09:00 +17°C° 0 mm 2 mps 595 mmHg 65%
    10:00 +19°C° 0 mm 2 mps 596 mmHg 60%
    11:00 +20°C° 0 mm 3 mps 596 mmHg 55%
    12:00 +20°C° 0 mm 3 mps 595 mmHg 55%
    13:00 +20°C° 0 mm 4 mps 595 mmHg 55%
    14:00 +20°C° 0 mm 4 mps 594 mmHg 55%
    15:00 +18°C° 0 mm 4 mps 594 mmHg 59%
    16:00 +17°C° 0 mm 3 mps 594 mmHg 63%
    17:00 +16°C° 0 mm 3 mps 594 mmHg 67%
    18:00 +15°C° 0 mm 2 mps 594 mmHg 70%
    19:00 +14°C° 0 mm 1 mps 594 mmHg 74%
    20:00 +13°C° 0 mm 1 mps 594 mmHg 77%
    21:00 +13°C° 0 mm 1 mps 594 mmHg 80%
    22:00 +12°C° 0 mm 0 mps 594 mmHg 82%
    23:00 +11°C° 0 mm 0 mps 594 mmHg 84%

    20 November, Wednesday

    Time Temperature Precipitation Wind Pressure Humidity
    00:00 +11°C° 0 mm 0 mps 593 mmHg 86%
    01:00 +11°C° 0 mm 0 mps 593 mmHg 87%
    02:00 +11°C° 0 mm 0 mps 593 mmHg 88%
    03:00 +10°C° 0 mm 0 mps 593 mmHg 88%
    04:00 +11°C° 0 mm 1 mps 593 mmHg 88%
    05:00 +11°C° 0 mm 1 mps 593 mmHg 87%
    06:00 +13°C° 0 mm 1 mps 594 mmHg 81%
    07:00 +15°C° 0 mm 1 mps 595 mmHg 74%
    08:00 +16°C° 0 mm 1 mps 596 mmHg 68%
    09:00 +19°C° 0 mm 1 mps 596 mmHg 63%
    10:00 +21°C° 0 mm 1 mps 596 mmHg 57%
    11:00 +22°C° 0 mm 1 mps 596 mmHg 52%
    12:00 +22°C° 0 mm 1 mps 596 mmHg 52%
    13:00 +21°C° 0 mm 2 mps 595 mmHg 52%
    14:00 +22°C° 0 mm 3 mps 595 mmHg 52%
    15:00 +21°C° 0.1 mm 2 mps 595 mmHg 56%
    16:00 +19°C° 0.1 mm 2 mps 594 mmHg 60%
    17:00 +18°C° 0.1 mm 2 mps 594 mmHg 65%
    18:00 +19°C° 0.1 mm 1 mps 595 mmHg 71%
    19:00 +18°C° 0.1 mm 1 mps 595 mmHg 76%
    20:00 +16°C° 0.1 mm 1 mps 595 mmHg 82%
    21:00 +16°C° 0.1 mm 1 mps 595 mmHg 84%
    22:00 +16°C° 0.1 mm 1 mps 595 mmHg 85%
    23:00 +16°C° 0.1 mm 1 mps 595 mmHg 86%
    Show more